TimeMST,TemperatureF,Dew PointF,Humidity,Sea Level PressureIn,VisibilityMPH,Wind Direction,Wind SpeedMPH,Gust SpeedMPH,PrecipitationIn,Events,Conditions,WindDirDegrees,DateUTC
12:51 AM,39.0,33.1,79,30.41,10.0,Calm,Calm,-,N/A,,Clear,0,2012-11-05 07:51:00
1:51 AM,35.1,30.9,85,30.42,10.0,WSW,5.8,-,N/A,,Clear,250,2012-11-05 08:51:00
2:51 AM,35.1,30.9,85,30.41,10.0,Calm,Calm,-,N/A,,Clear,0,2012-11-05 09:51:00
3:51 AM,34.0,30.0,85,30.40,10.0,Calm,Calm,-,N/A,,Clear,0,2012-11-05 10:51:00
4:51 AM,30.9,28.0,89,30.41,10.0,Calm,Calm,-,N/A,,Clear,0,2012-11-05 11:51:00
5:51 AM,33.1,30.0,89,30.42,10.0,Calm,Calm,-,N/A,,Clear,0,2012-11-05 12:51:00
6:51 AM,32.0,30.0,92,30.43,1.2,WSW,3.5,-,N/A,,Mostly Cloudy,240,2012-11-05 13:51:00
6:56 AM,30.2,30.2,100,30.43,0.5,Calm,Calm,-,N/A,Fog,Light Freezing Fog,0,2012-11-05 13:56:00
7:18 AM,30.2,28.4,93,30.43,1.2,Calm,Calm,-,N/A,,Scattered Clouds,0,2012-11-05 14:18:00
7:21 AM,30.2,28.4,93,30.43,3.0,NE,3.5,-,N/A,,Partly Cloudy,40,2012-11-05 14:21:00
7:51 AM,30.9,30.0,96,30.49,10.0,NE,3.5,-,N/A,,Scattered Clouds,40,2012-11-05 14:51:00
8:51 AM,35.1,33.1,92,30.51,9.0,Calm,Calm,-,N/A,,Mostly Cloudy,0,2012-11-05 15:51:00
9:51 AM,41.0,35.1,79,30.48,10.0,South,4.6,-,N/A,,Partly Cloudy,190,2012-11-05 16:51:00
10:51 AM,46.9,35.1,63,30.44,10.0,Calm,Calm,-,N/A,,Clear,0,2012-11-05 17:51:00
11:51 AM,53.1,35.1,50,30.40,10.0,Calm,Calm,-,N/A,,Clear,0,2012-11-05 18:51:00
12:51 PM,55.9,35.1,45,30.38,10.0,NNW,4.6,-,N/A,,Clear,330,2012-11-05 19:51:00
1:51 PM,60.1,35.1,39,30.35,10.0,NE,3.5,-,N/A,,Clear,40,2012-11-05 20:51:00
2:51 PM,60.1,35.1,39,30.32,10.0,Calm,Calm,-,N/A,,Clear,0,2012-11-05 21:51:00
3:51 PM,61.0,35.1,38,30.33,10.0,Calm,Calm,-,N/A,,Clear,0,2012-11-05 22:51:00
4:51 PM,55.0,37.9,53,30.36,10.0,Calm,Calm,-,N/A,,Clear,0,2012-11-05 23:51:00
5:51 PM,50.0,37.0,61,30.36,10.0,Calm,Calm,-,N/A,,Clear,0,2012-11-06 00:51:00
6:51 PM,46.0,35.1,66,30.38,10.0,SE,3.5,-,N/A,,Clear,130,2012-11-06 01:51:00
7:51 PM,45.0,36.0,71,30.40,10.0,SW,4.6,-,N/A,,Clear,220,2012-11-06 02:51:00
8:51 PM,39.9,34.0,79,30.39,10.0,Calm,Calm,-,N/A,,Clear,0,2012-11-06 03:51:00
9:51 PM,39.9,34.0,79,30.39,10.0,Calm,Calm,-,N/A,,Clear,0,2012-11-06 04:51:00
10:51 PM,37.0,33.1,86,30.37,10.0,Calm,Calm,-,N/A,,Clear,0,2012-11-06 05:51:00
11:51 PM,35.1,32.0,89,30.37,10.0,Calm,Calm,-,N/A,,Clear,0,2012-11-06 06:51:00